This is the latest recevied weather packets stored in our database for station/object KB1RMA-13. If no packets are shown the sender has not sent any weather packets the latest 10 day(s).
| Time | Temp. | Humidity | Pressure | Rain* | Wind** | Luminosity | Snow |
|---|---|---|---|---|---|---|---|
| 1777039504 | 8.89° C | 54% | 1011.9 hPa | 0 mm | - | 690 W/m² | - |
| 1777039199 | 8.89° C | 52% | 1011.9 hPa | 0 mm | - | 682 W/m² | - |
| 1777038898 | 8.89° C | 49% | 1012.1 hPa | 0 mm | - | 668 W/m² | - |
| 1777038595 | 8.33° C | 53% | 1011.7 hPa | 0 mm | - | 654 W/m² | - |
| 1777038295 | 8.33° C | 51% | 1012 hPa | 0 mm | - | 642 W/m² | - |
| 1777037990 | 8.33° C | 54% | 1011.9 hPa | 0 mm | - | 628 W/m² | - |
| 1777037686 | 8.89° C | 52% | 1011.7 hPa | 0 mm | - | 615 W/m² | - |
| 1777037383 | 8.33° C | 52% | 1011.5 hPa | 0 mm | - | 600 W/m² | - |
| 1777037080 | 7.78° C | 51% | 1011.7 hPa | 0 mm | - | 585 W/m² | - |
| 1777036777 | 7.78° C | 53% | 1011.5 hPa | 0 mm | - | 571 W/m² | - |
| 1777036473 | 7.78° C | 52% | 1011.6 hPa | 0 mm | - | 552 W/m² | - |
| 1777036173 | 7.78° C | 53% | 1011.5 hPa | 0 mm | - | 536 W/m² | - |
| 1777035870 | 7.22° C | 54% | 1011.6 hPa | 0 mm | - | 518 W/m² | - |
| 1777035566 | 7.78° C | 54% | 1011.6 hPa | 0 mm | - | 502 W/m² | - |
| 1777035266 | 7.22° C | 56% | 1011.7 hPa | 0 mm | - | 484 W/m² | - |
| 1777034962 | 7.22° C | 56% | 1011.7 hPa | 0 mm | - | 417 W/m² | - |
| 1777034659 | 6.67° C | 58% | 1011.7 hPa | 0 mm | - | 424 W/m² | - |
| 1777034356 | 6.67° C | 57% | 1011.7 hPa | 0 mm | - | 435 W/m² | - |
| 1777034052 | 6.67° C | 58% | 1011.7 hPa | 0 mm | - | 416 W/m² | - |
| 1777033748 | 6.67° C | 59% | 1011.6 hPa | 0 mm | - | 397 W/m² | - |
| 1777033444 | 6.67° C | 59% | 1011.7 hPa | 0 mm | - | 377 W/m² | - |
| 1777033143 | 6.67° C | 61% | 1011.7 hPa | 0 mm | - | 359 W/m² | - |
| 1777032843 | 6.11° C | 63% | 1012 hPa | 0 mm | - | 339 W/m² | - |
| 1777032540 | 5.56° C | 62% | 1011.7 hPa | 0 mm | - | 320 W/m² | - |
| 1777032239 | 6.11° C | 64% | 1011.7 hPa | 0 mm | - | 301 W/m² | - |
* Rain latest hour (hover to see other rain measurements)
** Current wind speed in m/s (hover to see current wind gust speed)